Tracking 30703 objects as of 13-Jun-2025
HD Live streaming from Space Station
objects crossing your sky now

FENGYUN 1C DEB

Track FENGYUN 1C DEB now!
10-day predictions


NORAD ID: 33674
Int'l Code: 1999-025DFK
Perigee: 830.6 km
Apogee: 1,138.9 km
Inclination: 98.6 °
Period: 104.6 minutes
Semi major axis: 7355 km
RCS: 0.0036 m2 (small)
Launch date: May 10, 1999
Source: People's Republic of China (PRC)
Launch site: Taiyaun Space Center, China (TSC)

Note: This is SATELLITE DEBRIS
Your satellite tracking list
Your tracking list is empty




NASA's NSSDC Master Catalog

Two Line Element Set (TLE):
1 33674U 99025DFK 25162.64012729  .00001058  00000-0  95955-3 0  9995
2 33674  98.6120 229.9260 0209585  16.8392 343.9582 13.76133509858327
Source of the keplerian elements: AFSPC